Location: ?
(35.3436°N, 139.3168°E)
Time: 21:41:30
(UTC+00:00)

H-2A R/B - Pass Details

Date: 29 October 2020
Orbit: 528 x 652 km, 98.3° (Epoch: 24 November)

Event Time Altitude Azimuth Distance (km) Brightness Sun altitude
Rises 20:01:37 0° 22° (NNE) 2,903 6.2 -12.9°
Reaches altitude 10° 20:03:59 10° 30° (NNE) 1,973 5.4 -12.4°
Maximum altitude 20:07:58 37° 98° (E) 929 4.2 -11.6°
Drops below altitude 10° 20:11:46 10° 167° (SSE) 1,889 5.3 -10.9°
Sets 20:13:59 0° 175° (S) 2,762 6.1 -10.4°
